Tracking 31027 objects as of 19-Jul-2025
HD Live streaming from Space Station
objects crossing your sky now

THOR ABLESTAR R/B

Track THOR ABLESTAR R/B now!
10-day predictions


NORAD ID: 1428
Int'l Code: 1965-048B
Perigee: 1,025.9 km
Apogee: 1,113.3 km
Inclination: 89.9 °
Period: 106.5 minutes
Semi major axis: 7440 km
RCS: 4.0527 m2 (large)
Launch date: June 24, 1965
Source: United States (US)
Launch site: AIR FORCE WESTERN TEST RANGE (AFWTR)

Note: This is a ROCKET BODY
Your satellite tracking list
STARLINK-3674
Track 1 satellite(s)




NASA's NSSDC Master Catalog

Two Line Element Set (TLE):
1 01428U 65048B   25199.53806591  .00000037  00000-0  39953-4 0  9994
2 01428  89.8846 289.1758 0058760  69.5279 302.1131 13.52660161963543
Source of the keplerian elements: AFSPC